Regional Weather Roundup
Issued by NWS

Home | Current Version | Previous Version | Text Only | Print | Product List | Glossary Off
Versions: 1 2 3 4 5 6 7 8 9 10 11 12 13 14 15 16 17 18 19 20 21 22 23 24 25 26 27 28 29 30 31 32 33 34 35 36 37 38 39 40 41 42 43 44 45 46 47 48 49 50

000
ASUS43 KOAX 220002
RWRNE

WEATHER ROUNDUP FOR NEBRASKA
NATIONAL WEATHER SERVICE OMAHA NE
700 PM CDT MON MAY 21 2018

NOTES: SATELLITE DATA IS BEING USED TO AUGMENT CLOUD COVER ABOVE
       12000 FEET.
       "FAIR" INDICATES FEW OR NO CLOUDS BELOW 12,000 FEET WITH NO
       SIGNIFICANT WEATHER AND/OR OBSTRUCTIONS TO VISIBILITY.


NEZ001>004-019>022-054>056-220100-
NEBRASKA PANHANDLE

CITY           SKY/WX    TMP DP  RH WIND       PRES   REMARKS
SCOTTSBLUFF    CLOUDY    70  59  68 SE7       29.94R
6HR MIN TEMP:  63; 6HR MAX TEMP:  74;

ALLIANCE       CLOUDY    68  57  68 SE8       29.94R
6HR MIN TEMP:  62; 6HR MAX TEMP:  72;

CHADRON        MOSUNNY   76  55  48 SE8       29.89R
6HR MIN TEMP:  70; 6HR MAX TEMP:  76;

GORDON         FAIR      73  54  50 S6        29.92F
6HR MIN TEMP:  69; 6HR MAX TEMP:  74;

SIDNEY         MOSUNNY   72  55  55 E7        29.96R
6HR MIN TEMP:  63; 6HR MAX TEMP:  77;

$$

NEZ057>060-069>072-079>082-220100-
SOUTHWEST NEBRASKA

CITY           SKY/WX    TMP DP  RH WIND       PRES   REMARKS
NORTH PLATTE   MOSUNNY   77  60  55 S10       29.91S
6HR MIN TEMP:  70; 6HR MAX TEMP:  78;

IMPERIAL       MOSUNNY   77  58  51 SE6       29.89F
6HR MIN TEMP:  67; 6HR MAX TEMP:  82;

LEXINGTON      PTSUNNY   74  62  65 S9        29.92F
MCCOOK         PTSUNNY   79  60  52 S13       29.89F
6HR MIN TEMP:  71; 6HR MAX TEMP:  79;

OGALLALA       MOSUNNY   77  57  50 S7        29.91F
$$

NEZ005>010-023>029-035>040-094-220100-
NORTH CENTRAL NEBRASKA

CITY           SKY/WX    TMP DP  RH WIND       PRES   REMARKS
VALENTINE      MOSUNNY   76  53  44 S12       29.92S
6HR MIN TEMP:  72; 6HR MAX TEMP:  78;

AINSWORTH      MOSUNNY   71  56  59 S9        29.94F
BROKEN BOW     PTSUNNY   73  60  63 SE13      29.94F
6HR MIN TEMP:  68; 6HR MAX TEMP:  73;

O`NEILL        SUNNY     73  57  57 S5        29.96S
ORD            MOSUNNY   71  58  63 S8        29.94F
6HR MIN TEMP:  66; 6HR MAX TEMP:  72;

THEDFORD       MOSUNNY   74  56  52 S9        29.93F
$$

NEZ041-046>049-061>064-073>077-083>087-220100-
SOUTH CENTRAL NEBRASKA

CITY           SKY/WX    TMP DP  RH WIND       PRES   REMARKS
GRAND ISLAND   CLOUDY    73  58  59 CALM      29.97F
6HR MIN TEMP:  68; 6HR MAX TEMP:  75;

AURORA         SUNNY     73  57  58 W5        29.97S
HASTINGS       MOSUNNY   76  57  51 S7        29.97S
6HR MIN TEMP:  66; 6HR MAX TEMP:  76;

HEBRON         SUNNY     78  56  46 SW7       29.96S
HOLDREGE       MOSUNNY   75  61  61 S13       29.93F
KEARNEY        CLOUDY    73  60  63 S8        29.95F
YORK           SUNNY     75  57  53 CALM      29.96F
$$

NEZ011>018-030>034-042>045-220100-
NORTHEAST NEBRASKA

CITY           SKY/WX    TMP DP  RH WIND       PRES   REMARKS
NORFOLK        SUNNY     74  55  51 SW9       29.94F
6HR MIN TEMP:  68; 6HR MAX TEMP:  76;

ALBION         PTSUNNY   73  58  60 SW8       29.97S
BLAIR          SUNNY     74  58  57 NE3       29.96F
COLUMBUS       SUNNY     74  56  53 SW9       29.97S
FREMONT        SUNNY     76  54  46 NW5       29.96F
TEKAMAH        SUNNY     71  59  65 E3        29.95F
6HR MIN TEMP:  62; 6HR MAX TEMP:  73;

WAYNE          SUNNY     74  55  51 SW8       29.95S
$$

NEZ050>053-065>068-078-088>093-220100-
SOUTHEAST NEBRASKA

CITY           SKY/WX    TMP DP  RH WIND       PRES   REMARKS
LINCOLN        SUNNY     76  56  49 CALM      29.96F
6HR MIN TEMP:  69; 6HR MAX TEMP:  78;

OMAHA EPPLEY   MOSUNNY   75  56  51 VRB3      29.95F
6HR MIN TEMP:  65; 6HR MAX TEMP:  77;

BEATRICE       SUNNY     79  57  47 S7        29.96S
FALLS CITY     CLOUDY    78  54  43 N7        29.95F
6HR MIN TEMP:  70; 6HR MAX TEMP:  78;

NEBRASKA CITY  SUNNY     77  54  45 NW6       29.96F
PLATTSMOUTH    SUNNY     76  53  44 W5        29.97S
$$

NEZ044-045-051>053-067-220100-
OMAHA AREA

CITY           SKY/WX    TMP DP  RH WIND       PRES   REMARKS
OMAHA EPPLEY   MOSUNNY   75  56  51 VRB3      29.95F
6HR MIN TEMP:  65; 6HR MAX TEMP:  77;

BLAIR          SUNNY     74  58  57 NE3       29.96F
FREMONT        SUNNY     76  54  46 NW5       29.96F
MILLARD        SUNNY     77  54  44 CALM      29.96S
OFFUTT AFB     SUNNY     76  56  49 CALM      29.95F
PLATTSMOUTH    SUNNY     76  53  44 W5        29.97S
WAHOO          FAIR      77  49  37 CALM      29.96S
$$




USA.gov is the U.S. government's official web portal to all federal, state and local government web resources and services.